Weather History for HECA - May, 2013

Change the Weather History Date:

Wednesday, May 22, 2013

  Actual Average Record
Temperature  
Mean Temperature 82 °F -  
Max Temperature 94 °F 90 °F 100 °F (2012)
Min Temperature 71 °F 68 °F 62 °F (2004)
Cooling Degree Days 18    
Growing Degree Days 32 (Base 50)    
Moisture  
Dew Point 53 °F    
Average Humidity 38    
Maximum Humidity 61    
Minimum Humidity 10    
Precipitation  
Precipitation 0.00 in 0.00 in - ()
Sea Level Pressure  
Sea Level Pressure 29.88 in    
Wind  
Wind Speed 7 mph ()    
Max Wind Speed 17 mph    
Max Gust Speed -    
Visibility 6.0 miles    
Events      
Averages and records for this station are not official NWS values.
T = Trace of Precipitation, MM = Missing Value Source: Averaged Metar Reports

Daily Weather History Graph

Daily Weather History Graph

Search for Another Location

Airport or City:

Trip Planner

Search our weather history database for the weather conditions in past years. The results will help you decide how hot, cold, wet, or windy it might be!

Date:

Astronomy

May. 22, 2013 Rise Set
Actual Time 4:56 AM EET 6:45 PM EET
Civil Twilight 4:30 AM EET 7:12 PM EET
Nautical Twilight 3:58 AM EET 7:44 PM EET
Astronomical Twilight 3:24 AM EET 8:18 PM EET
Moon 3:54 PM EET (5/22) 2:35 AM EET (5/22)
Length of Visible Light 14h 41m
Length of Day
13h 48m
Waxing Gibbous, 89% of the Moon is Illuminated
May 22
Waxing Gibbous
May 25
Full
May 31
Last Quarter
Jun 8
New
Jun 16
First Quarter

Hourly Weather History & Observations

Time (EET) Temp. Heat Index Dew Point Humidity Pressure Visibility Wind Dir Wind Speed Gust Speed Precip Events Conditions
12:00 AM 77.0 °F - 57.2 °F 50% 29.89 in - NE 6.9 mph - N/A   Clear
12:30 AM 75.2 °F - 57.2 °F 53% 29.89 in - NE 8.1 mph - N/A   Clear
1:00 AM 75.2 °F - 59.0 °F 57% 29.89 in - NNE 6.9 mph - N/A   Clear
1:30 AM 75.2 °F - 59.0 °F 57% 29.89 in - NNE 6.9 mph - N/A   Clear
2:00 AM 74 °F - 59 °F 51% 29.90 in 6 mi NE 6.9 mph - -  
2:00 AM 73.4 °F - 59.0 °F 61% 29.89 in - NE 6.9 mph - N/A   Clear
2:30 AM 73.4 °F - 59.0 °F 61% 29.89 in - NE 6.9 mph - N/A   Clear
3:00 AM 73.4 °F - 59.0 °F 61% 29.89 in - ENE 4.6 mph - N/A   Clear
3:30 AM 73.4 °F - 59.0 °F 61% 29.89 in - ENE 4.6 mph - N/A   Clear
4:00 AM 71.6 °F - 57.2 °F 60% 29.89 in - NNE 2.3 mph - N/A   Clear
4:30 AM 71.6 °F - 57.2 °F 60% 29.89 in - East 4.6 mph - N/A   Clear
5:00 AM 71.6 °F - 57.2 °F 60% 29.89 in - East 4.6 mph - N/A   Clear
5:30 AM 73.4 °F - 59.0 °F 61% 29.89 in - East 4.6 mph - N/A   Clear
6:00 AM 73.4 °F - 59.0 °F 61% 29.89 in - East 3.5 mph - N/A   Clear
6:30 AM 75.2 °F - 60.8 °F 61% 29.89 in - ENE 5.8 mph - N/A   Clear
7:00 AM 75.2 °F - 60.8 °F 61% 29.89 in - NE 5.8 mph - N/A   Clear
7:30 AM 77.0 °F - 60.8 °F 57% 29.89 in - NE 5.8 mph - N/A   Clear
8:00 AM 78 °F - 59 °F 41% 29.92 in 6 mi East 5.8 mph - -  
8:00 AM 78.8 °F - 59.0 °F 51% 29.89 in - East 5.8 mph - N/A   Clear
8:30 AM 82.4 °F 81.4 °F 53.6 °F 37% 29.92 in - East 5.8 mph - N/A   Clear
9:00 AM 84.2 °F 82.8 °F 53.6 °F 35% 29.92 in - NNE 6.9 mph - N/A   Clear
9:30 AM 86.0 °F 84.5 °F 55.4 °F 35% 29.92 in - North 6.9 mph - N/A   Clear
10:00 AM 86.0 °F - 51.8 °F 31% 29.92 in - North 6.9 mph - N/A   Clear
10:30 AM 87.8 °F - 50.0 °F 27% 29.92 in - North 6.9 mph - N/A   Clear
11:00 AM 89.6 °F - 48.2 °F 24% 29.92 in - North 10.4 mph - N/A   Clear
11:30 AM 89.6 °F - 48.2 °F 24% 29.89 in - North 10.4 mph - N/A   Clear
12:00 PM 91.4 °F - 48.2 °F 23% 29.89 in - NW 6.9 mph - N/A   Clear
12:30 PM 93.2 °F - 46.4 °F 20% 29.89 in - NW 9.2 mph - N/A   Clear
1:00 PM 93.2 °F - 44.6 °F 19% 29.89 in - NNW 9.2 mph - N/A   Clear
1:30 PM 93.2 °F - 44.6 °F 19% 29.86 in - NNW 10.4 mph - N/A   Clear
2:00 PM 94 °F - 44 °F 10% 29.86 in 6 mi NNW 9.2 mph - -  
2:00 PM 93.2 °F - 44.6 °F 19% 29.86 in - NNW 9.2 mph - N/A   Clear
2:30 PM 93.2 °F - 44.6 °F 19% 29.86 in - NNW 8.1 mph - N/A   Clear
3:00 PM 95.0 °F - 42.8 °F 16% 29.86 in - NNW 10.4 mph - N/A   Clear
3:30 PM 95.0 °F - 42.8 °F 16% 29.86 in - North 10.4 mph - N/A   Clear
4:00 PM 93.2 °F - 46.4 °F 20% 29.86 in - NNW 11.5 mph - N/A   Clear
4:30 PM 93.2 °F - 46.4 °F 20% 29.83 in - NNW 11.5 mph - N/A   Clear
5:00 PM 93.2 °F - 50.0 °F 23% 29.83 in - NNW 13.8 mph - N/A   Clear
5:30 PM 91.4 °F - 48.2 °F 23% 29.83 in - NNW 13.8 mph - N/A   Clear
6:00 PM 91.4 °F - 48.2 °F 23% 29.83 in - NNW 11.5 mph - N/A   Clear
6:30 PM 89.6 °F - 46.4 °F 22% 29.86 in - NNW 13.8 mph - N/A   Clear
7:00 PM 89.6 °F - 48.2 °F 24% 29.86 in - NNW 13.8 mph - N/A   Clear
7:30 PM 89.6 °F - 48.2 °F 24% 29.86 in - North 11.5 mph - N/A   Clear
8:00 PM 87 °F - 54 °F 22% 29.87 in 6 mi North 15.0 mph - -  
8:00 PM 87.8 °F 85.7 °F 53.6 °F 31% 29.89 in - North 15.0 mph - N/A   Clear
8:30 PM 84.2 °F 83.0 °F 55.4 °F 37% 29.89 in - NNE 17.3 mph - N/A   Clear
9:00 PM 84.2 °F - 51.8 °F 33% 29.89 in - NNE 16.1 mph - N/A   Clear
9:30 PM 82.4 °F - 51.8 °F 35% 29.89 in - NE 13.8 mph - N/A   Clear
10:00 PM 82.4 °F - 50.0 °F 32% 29.89 in - NE 11.5 mph - N/A   Clear
10:30 PM 80.6 °F 80.8 °F 57.2 °F 45% 29.92 in - NNE 13.8 mph - N/A   Clear
11:00 PM 78.8 °F - 59.0 °F 51% 29.89 in - NNE 12.7 mph - N/A   Clear
11:30 PM 78.8 °F - 62.6 °F 57% 29.89 in - NNE 12.7 mph - N/A   Clear